(2012 VE26) |
Classification: Apollo [NEO] SPK-ID: 3617078 |
[ hide orbit diagram ]
For accurate long-term ephemerides, please instead use our Horizons system.This orbit viewer was implemented using two-body methods, and hence should not be used for determining accurate long-term trajectories (over several years or decades) or planetary encounter circumstances.
Orbital Elements at Epoch 2456238.5 (2012-Nov-07.0) TDB
Reference: JPL 5 (heliocentric ecliptic J2000)
Element | Value | Uncertainty (1-sigma) | Units |
e | .6333070017565962 | 0.001684 | |
a | 1.587273036612272 | 0.0046798 | au |
q | .5820419088262661 | 0.0009686 | au |
i | 3.577480346070421 | 0.015895 | deg |
node | 44.57927441554091 | 0.00052287 | deg |
peri | 94.72706624631211 | 0.047702 | deg |
M | 335.0798904364698 | 0.13874 | deg |
tp | 2456289.061893761408 (2012-Dec-27.56189376) | 0.057895 | TDB |
period | 730.4254304220775 2.00 | 3.2303 0.008844 | d yr |
n | .4928634532781442 | 0.0021797 | deg/d |
Q | 2.592504164398278 | 0.0076435 | au |
|
| | Orbit Determination Parameters
Additional Information
|
[ show covariance matrix ]
Physical Parameter Table
Parameter |
Symbol |
Value |
Units |
Sigma |
Reference |
Notes |
absolute magnitude |
H |
28.4 |
|
n/a |
MPO244127 |
|
|
[ show close-approach data ]
|